Вернуться в каталог

STARLINK-35376

АктивенСвязьVLEO
NORAD 66018·PAYLOAD·🇺🇸 United States

Запущен Oct 16, 2025 с Cape Canaveral Space Force Station

Loading…

Ближайшие Пролёты (ближайшие 24 часа)

TLE

СвежийSource: CelesTrak SupGP

Эпоха: Sep 15, 2026, 02:33 UTC

1 66018C 25232P   26258.10673611  .00021039  00000+0  62196-3 0  2582
2 66018  53.1576 301.0934 0001265  91.3607  77.8508 15.34361885    10

Отслеживайте STARLINK-35376 в реальном времени с AllMySat

Download on the App Store